.
WxDataArchive / Data Records for 2010-04-26
2010-04-25 April 2010 2010-04-27

Data Records for Monday, 26 April 2010

Time	Temp	Chill	HIndex	Humid	Dewpt	 Wind 	HiWind	WindDir	Rain 	Barom 
-----	----	-----	------	-----	-----	------	------	-------	-----	----- 
00:00	49.8	49.8	49.8	95	48.4	1	6	22	0.00	29.281 
00:05	49.8	49.8	49.8	95	48.4	2	6	90	0.00	29.281 
00:10	49.8	49.8	49.8	95	48.4	2	6	68	0.00	29.281 
00:15	49.8	49.8	49.8	95	48.4	2	6	112	0.00	29.283 
00:20	49.8	49.8	49.8	95	48.4	1	5	112	0.01	29.283 
00:25	49.6	49.6	49.6	95	48.2	2	6	0	0.00	29.283 
00:30	49.6	49.6	49.6	95	48.2	1	5	68	0.00	29.285 
00:35	49.6	49.6	49.6	95	48.2	2	10	45	0.00	29.285 
00:40	49.6	49.6	49.6	95	48.2	1	4	68	0.01	29.285 
00:45	49.6	49.6	49.6	95	48.2	2	6	68	0.00	29.287 
00:50	49.5	49.5	49.5	95	48.1	3	13	112	0.00	29.287 
00:55	49.5	49.5	49.5	95	48.1	1	6	112	0.00	29.287 
01:00	49.5	49.5	49.5	95	48.1	1	5	292	0.00	29.288 
01:05	49.4	49.4	49.4	94	47.7	1	5	338	0.01	29.288 
01:10	49.4	49.4	49.4	95	48.0	1	7	45	0.00	29.288 
01:15	49.2	49.2	49.2	94	47.5	2	10	22	0.00	29.296 
01:20	49.2	49.2	49.2	94	47.5	2	5	112	0.00	29.296 
01:25	49.2	49.2	49.2	94	47.5	2	7	135	0.01	29.296 
01:30	49.2	49.2	49.2	94	47.5	1	6	90	0.00	29.298 
01:35	49.2	49.2	49.2	94	47.5	1	6	90	0.00	29.298 
01:40	49.1	49.1	49.1	94	47.4	1	4	135	0.01	29.298 
01:45	49.1	49.1	49.1	94	47.4	1	4	0	0.00	29.302 
01:50	49.1	49.1	49.1	94	47.4	2	6	112	0.00	29.302 
01:55	49.1	49.1	49.1	94	47.4	1	6	0	0.01	29.302 
02:00	49.1	49.1	49.1	94	47.4	1	7	90	0.00	29.304 
02:05	49.1	49.1	49.1	94	47.4	1	5	112	0.00	29.304 
02:10	49.1	49.1	49.1	94	47.4	1	5	135	0.00	29.304 
02:15	49.1	49.1	49.1	94	47.4	1	4	0	0.01	29.300 
02:20	48.9	48.9	48.9	94	47.2	1	5	0	0.00	29.300 
02:25	48.8	48.8	48.8	94	47.1	1	6	68	0.00	29.300 
02:30	48.8	48.8	48.8	94	47.1	1	4	45	0.00	29.299 
02:35	48.8	48.8	48.8	94	47.1	1	4	0	0.00	29.299 
02:40	48.8	48.8	48.8	95	47.4	1	4	68	0.00	29.299 
02:45	48.6	48.6	48.6	94	47.0	1	5	158	0.00	29.298 
02:50	48.6	48.6	48.6	94	47.0	1	4	22	0.00	29.298 
02:55	48.6	48.6	48.6	94	47.0	1	3	112	0.00	29.298 
03:00	48.5	48.5	48.5	94	46.9	1	2	315	0.00	29.298 
03:05	48.5	48.5	48.5	94	46.9	0	2	315	0.00	29.298 
03:10	48.5	48.5	48.5	94	46.9	1	4	338	0.00	29.298 
03:15	48.5	48.5	48.5	94	46.9	0	2	90	0.00	29.300 
03:20	48.5	48.5	48.5	94	46.9	1	3	0	0.01	29.300 
03:25	48.5	48.5	48.5	94	46.9	1	3	0	0.00	29.300 
03:30	48.3	48.3	48.3	94	46.7	1	3	180	0.00	29.301 
03:35	48.3	48.3	48.3	94	46.7	1	6	292	0.00	29.301 
03:40	48.2	48.2	48.2	94	46.6	1	3	0	0.00	29.301 
03:45	48.2	48.2	48.2	94	46.6	1	4	0	0.00	29.303 
03:50	48.2	48.2	48.2	94	46.6	0	2	22	0.00	29.303 
03:55	48.2	48.2	48.2	94	46.6	1	4	135	0.00	29.303 
04:00	48.0	48.0	48.0	94	46.4	1	4	45	0.00	29.304 
04:05	48.0	48.0	48.0	94	46.4	1	2	315	0.00	29.304 
04:10	48.0	48.0	48.0	94	46.4	0	5	45	0.00	29.304 
04:15	48.0	48.0	48.0	94	46.4	1	4	292	0.00	29.309 
04:20	47.9	47.9	47.9	94	46.3	0	3	270	0.01	29.309 
04:25	47.9	47.9	47.9	94	46.3	0	2	270	0.00	29.309 
04:30	47.9	47.9	47.9	94	46.3	1	4	135	0.00	29.312 
04:35	47.9	47.9	47.9	94	46.3	1	5	90	0.00	29.312 
04:40	47.9	47.9	47.9	94	46.3	0	2	22	0.00	29.312 
04:45	47.9	47.9	47.9	94	46.3	1	2	248	0.00	29.316 
04:50	47.7	47.7	47.7	94	46.1	1	3	22	0.01	29.316 
04:55	47.7	47.7	47.7	94	46.1	0	1	22	0.00	29.316 
05:00	47.7	47.7	47.7	94	46.1	1	4	338	0.00	29.318 
05:05	47.7	47.7	47.7	94	46.1	1	3	248	0.00	29.318 
05:10	47.7	47.7	47.7	94	46.1	1	2	248	0.01	29.318 
05:15	47.7	47.7	47.7	94	46.1	1	4	292	0.00	29.325 
05:20	47.7	47.7	47.7	94	46.1	0	3	45	0.00	29.325 
05:25	47.7	47.7	47.7	94	46.1	1	4	0	0.00	29.325 
05:30	47.7	47.7	47.7	94	46.1	1	4	0	0.01	29.326 
05:35	47.7	47.7	47.7	94	46.1	0	2	112	0.00	29.326 
05:40	47.7	47.7	47.7	94	46.1	1	3	112	0.00	29.326 
05:45	47.7	47.7	47.7	94	46.1	1	2	0	0.00	29.328 
05:50	47.7	47.7	47.7	94	46.1	1	4	270	0.00	29.328 
05:55	47.7	47.7	47.7	94	46.1	1	2	315	0.00	29.328 
06:00	47.6	47.6	47.6	94	46.0	1	7	45	0.00	29.330 
06:05	47.6	47.6	47.6	94	46.0	1	7	270	0.00	29.330 
06:10	47.4	47.4	47.4	94	45.8	1	3	45	0.00	29.330 
06:15	47.4	47.4	47.4	94	45.8	0	3	112	0.00	29.337 
06:20	47.3	47.3	47.3	94	45.7	1	5	0	0.00	29.337 
06:25	47.3	47.3	47.3	94	45.7	1	3	45	0.00	29.337 
06:30	47.1	47.1	47.1	94	45.5	0	3	338	0.01	29.341 
06:35	47.1	47.1	47.1	94	45.5	1	3	338	0.00	29.341 
06:40	47.0	47.0	47.0	94	45.4	0	2	0	0.00	29.341 
06:45	47.0	47.0	47.0	94	45.4	1	5	270	0.00	29.344 
06:50	47.0	47.0	47.0	94	45.4	0	2	338	0.00	29.344 
06:55	47.0	47.0	47.0	94	45.4	1	4	0	0.00	29.344 
07:00	46.8	46.8	46.8	93	44.9	0	2	270	0.00	29.347 
07:05	46.8	46.8	46.8	93	44.9	0	3	270	0.00	29.347 
07:10	46.8	46.8	46.8	93	44.9	0	3	270	0.00	29.347 
07:15	46.8	46.8	46.8	93	44.9	0	2	270	0.00	29.352 
07:20	46.8	46.8	46.8	93	44.9	0	2	270	0.00	29.352 
07:25	46.8	46.8	46.8	93	44.9	0	2	270	0.01	29.352 
07:30	46.8	46.8	46.8	93	44.9	0	2	45	0.00	29.359 
07:35	46.8	46.8	46.8	93	44.9	0	2	45	0.00	29.359 
07:40	46.8	46.8	46.8	93	44.9	1	4	292	0.00	29.359 
07:45	46.8	46.8	46.8	93	44.9	0	1	270	0.00	29.360 
07:50	47.0	47.0	47.0	94	45.4	0	3	270	0.00	29.360 
07:55	47.0	47.0	47.0	94	45.4	1	3	338	0.00	29.360 
08:00	47.0	47.0	47.0	94	45.4	0	3	225	0.00	29.370 
08:05	47.1	47.1	47.1	94	45.5	0	2	225	0.00	29.370 
08:10	47.1	47.1	47.1	94	45.5	1	3	225	0.00	29.370 
08:15	47.1	47.1	47.1	94	45.5	0	3	225	0.00	29.376 
08:20	47.3	47.3	47.3	94	45.7	0	2	225	0.00	29.376 
08:25	47.3	47.3	47.3	94	45.7	0	1	225	0.00	29.376 
08:30	47.3	47.3	47.3	94	45.7	0	2	225	0.01	29.379 
08:35	47.3	47.3	47.3	94	45.7	0	1	225	0.00	29.379 
08:40	47.3	47.3	47.3	94	45.7	1	3	270	0.00	29.379 
08:45	47.3	47.3	47.3	94	45.7	1	5	270	0.00	29.384 
08:50	47.3	47.3	47.3	94	45.7	1	2	270	0.00	29.384 
08:55	47.3	47.3	47.3	94	45.7	1	3	270	0.00	29.384 
09:00	47.3	47.3	47.3	94	45.7	1	3	292	0.00	29.389 
09:05	47.3	47.3	47.3	93	45.4	1	6	292	0.00	29.389 
09:10	47.3	47.3	47.3	93	45.4	1	4	315	0.00	29.389 
09:15	47.4	47.4	47.4	92	45.2	1	2	315	0.00	29.394 
09:20	47.4	47.4	47.4	92	45.2	0	5	315	0.00	29.394 
09:25	47.6	47.6	47.6	91	45.1	1	2	270	0.00	29.394 
09:30	47.7	47.7	47.7	91	45.2	0	3	270	0.00	29.395 
09:35	47.9	47.9	47.9	90	45.1	0	2	270	0.00	29.395 
09:40	47.9	47.9	47.9	89	44.8	0	2	270	0.00	29.395 
09:45	48.0	48.0	48.0	89	44.9	0	1	270	0.00	29.401 
09:50	48.2	48.2	48.2	88	44.8	0	2	270	0.00	29.401 
09:55	48.3	48.3	48.3	88	44.9	1	3	292	0.00	29.401 
10:00	48.5	48.5	48.5	86	44.5	1	4	270	0.00	29.401 
10:05	48.8	48.8	48.8	85	44.5	1	4	248	0.00	29.401 
10:10	48.8	48.8	48.8	84	44.2	1	3	0	0.00	29.401 
10:15	48.9	48.9	48.9	83	44.0	1	4	338	0.00	29.406 
10:20	49.1	49.1	49.1	83	44.2	1	4	315	0.00	29.406 
10:25	49.1	49.1	49.1	82	43.8	0	3	0	0.00	29.406 
10:30	49.1	49.1	49.1	81	43.5	1	3	0	0.00	29.409 
10:35	49.2	49.2	49.2	82	43.9	0	2	270	0.00	29.409 
10:40	49.2	49.2	49.2	80	43.3	1	3	270	0.00	29.409 
10:45	49.4	49.4	49.4	80	43.5	0	3	0	0.00	29.417 
10:50	49.6	49.6	49.6	80	43.7	0	1	315	0.00	29.417 
10:55	49.8	49.8	49.8	79	43.6	0	2	338	0.00	29.417 
11:00	49.9	49.9	49.9	80	44.0	0	2	90	0.00	29.421 
11:05	50.1	50.1	50.1	79	43.8	0	1	90	0.00	29.421 
11:10	50.2	50.2	50.2	78	43.6	0	1	90	0.00	29.421 
11:15	50.4	50.4	50.4	78	43.8	0	1	90	0.00	29.424 
11:20	50.7	50.7	50.7	77	43.8	0	3	90	0.00	29.424 
11:25	51.0	51.0	51.0	75	43.4	0	3	270	0.00	29.424 
11:30	51.3	51.3	51.3	74	43.3	1	2	0	0.00	29.430 
11:35	51.6	51.6	51.6	75	43.9	0	1	270	0.00	29.430 
11:40	51.7	51.7	51.7	73	43.3	1	3	270	0.00	29.430 
11:45	51.9	51.9	51.9	71	42.8	1	9	0	0.00	29.433 
11:50	52.0	52.0	52.0	70	42.5	1	8	45	0.00	29.433 
11:55	52.3	52.3	52.3	70	42.8	1	5	292	0.00	29.433 
12:00	52.8	52.8	52.8	69	42.9	1	3	22	0.00	29.436 
12:05	53.3	53.3	53.3	67	42.6	1	5	315	0.00	29.436 
12:10	53.9	53.9	53.9	65	42.4	1	4	22	0.00	29.436 
12:15	54.5	54.5	54.5	64	42.6	1	5	22	0.00	29.435 
12:20	54.8	54.8	54.8	60	41.2	1	6	45	0.00	29.435 
12:25	55.1	55.1	55.1	60	41.5	1	5	338	0.00	29.435 
12:30	55.3	55.3	55.3	59	41.2	1	4	292	0.00	29.436 
12:35	55.6	55.6	55.6	58	41.1	1	4	315	0.00	29.436 
12:40	55.9	55.9	55.9	58	41.3	1	5	292	0.00	29.436 
12:45	56.3	56.3	56.3	58	41.7	0	2	338	0.00	29.438 
12:50	56.7	56.7	56.7	56	41.2	1	5	338	0.00	29.438 
12:55	57.2	57.2	57.2	56	41.6	1	6	338	0.00	29.438 
13:00	58.0	58.0	58.0	56	42.4	1	6	0	0.00	29.441 
13:05	58.4	58.4	58.4	55	42.3	1	5	0	0.00	29.441 
13:10	58.7	58.7	58.7	55	42.6	1	5	0	0.00	29.441 
13:15	59.0	59.0	59.0	53	41.9	1	7	112	0.00	29.440 
13:20	59.5	59.5	59.5	52	41.9	1	7	112	0.00	29.440 
13:25	60.2	60.2	60.2	54	43.5	1	4	338	0.00	29.440 
13:30	60.7	60.7	60.7	51	42.5	1	4	112	0.00	29.437 
13:35	60.5	60.5	60.5	52	42.8	1	4	135	0.00	29.437 
13:40	60.1	60.1	60.1	53	42.9	1	5	45	0.00	29.437 
13:45	59.9	59.9	59.9	53	42.7	1	8	0	0.00	29.444 
13:50	59.9	59.9	59.9	51	41.7	1	10	135	0.00	29.444 
13:55	59.8	59.8	59.8	50	41.1	1	6	22	0.00	29.444 
14:00	60.2	60.2	60.2	51	42.0	2	9	270	0.00	29.447 
14:05	60.7	60.7	60.7	50	41.9	1	9	22	0.00	29.447 
14:10	61.2	61.2	61.2	51	42.9	1	5	22	0.00	29.447 
14:15	61.6	61.6	61.6	48	41.7	1	7	68	0.00	29.444 
14:20	61.6	61.6	61.6	47	41.2	2	8	292	0.00	29.444 
14:25	61.8	61.8	61.8	46	40.8	1	5	45	0.00	29.444 
14:30	61.8	61.8	61.8	48	41.9	1	4	22	0.00	29.447 
14:35	61.6	61.6	61.6	48	41.7	1	3	292	0.00	29.447 
14:40	61.8	61.8	61.8	49	42.4	1	4	90	0.00	29.447 
14:45	62.0	62.0	62.0	44	39.8	1	5	315	0.00	29.451 
14:50	62.3	62.3	62.3	45	40.7	1	6	45	0.00	29.451 
14:55	62.6	62.6	62.6	49	43.2	1	4	22	0.00	29.451 
15:00	62.9	62.9	62.9	48	42.9	2	7	45	0.00	29.451 
15:05	62.7	62.7	62.7	44	40.5	1	7	22	0.00	29.451 
15:10	63.1	63.1	63.1	43	40.2	1	9	0	0.00	29.451 
15:15	63.2	63.2	63.2	42	39.7	1	4	0	0.00	29.459 
15:20	63.4	63.4	63.4	43	40.5	1	5	270	0.00	29.459 
15:25	63.4	63.4	63.4	41	39.3	1	4	112	0.00	29.459 
15:30	63.9	63.9	63.9	39	38.5	1	4	0	0.00	29.454 
15:35	64.3	64.3	64.3	43	41.3	1	5	248	0.00	29.454 
15:40	64.2	64.2	64.2	39	38.7	2	5	112	0.00	29.454 
15:45	63.2	63.2	63.2	42	39.7	1	7	45	0.00	29.460 
15:50	63.1	63.1	63.1	43	40.2	1	5	45	0.00	29.460 
15:55	63.7	63.7	63.7	42	40.2	1	5	0	0.00	29.460 
16:00	64.3	64.3	64.3	41	40.1	2	6	68	0.00	29.456 
16:05	64.3	64.3	64.3	43	41.3	1	2	22	0.00	29.456 
16:10	63.5	63.5	63.5	41	39.4	1	3	338	0.00	29.456 
16:15	63.2	63.2	63.2	43	40.3	1	3	90	0.00	29.461 
16:20	63.2	63.2	63.2	41	39.1	1	3	270	0.00	29.461 
16:25	62.9	62.9	62.9	40	38.2	1	3	45	0.00	29.461 
16:30	62.7	62.7	62.7	41	38.7	1	4	90	0.00	29.458 
16:35	63.2	63.2	63.2	42	39.7	1	3	270	0.00	29.458 
16:40	63.7	63.7	63.7	38	37.6	2	6	292	0.00	29.458 
16:45	63.9	63.9	63.9	39	38.5	1	2	338	0.00	29.458 
16:50	63.4	63.4	63.4	40	38.7	1	6	90	0.00	29.458 
16:55	62.7	62.7	62.7	39	37.4	1	3	22	0.00	29.458 
17:00	62.9	62.9	62.9	40	38.2	1	3	0	0.00	29.462 
17:05	63.5	63.5	63.5	42	40.0	1	5	90	0.00	29.462 
17:10	64.3	64.3	64.3	39	38.8	1	2	22	0.00	29.462 
17:15	65.0	65.0	65.0	37	38.1	1	6	22	0.00	29.463 
17:20	65.0	65.0	65.0	39	39.4	1	5	22	0.00	29.463 
17:25	64.7	64.7	64.7	34	35.7	1	7	22	0.00	29.463 
17:30	64.2	64.2	64.2	35	36.0	1	5	22	0.00	29.468 
17:35	64.2	64.2	64.2	35	36.0	1	6	315	0.00	29.468 
17:40	64.2	64.2	64.2	33	34.5	1	3	315	0.00	29.468 
17:45	64.3	64.3	64.3	33	34.6	1	4	338	0.00	29.476 
17:50	64.2	64.2	64.2	34	35.2	1	3	338	0.00	29.476 
17:55	64.0	64.0	64.0	34	35.1	1	5	292	0.00	29.476 
18:00	63.5	63.5	63.5	36	36.1	1	3	292	0.00	29.487 
18:05	63.7	63.7	63.7	34	34.8	1	4	338	0.00	29.487 
18:10	63.7	63.7	63.7	36	36.2	1	4	270	0.00	29.487 
18:15	63.7	63.7	63.7	34	34.8	1	3	292	0.00	29.495 
18:20	63.4	63.4	63.4	32	33.0	1	4	0	0.00	29.495 
18:25	63.2	63.2	63.2	32	32.9	1	3	315	0.00	29.495 
18:30	63.1	63.1	63.1	35	35.0	1	4	22	0.00	29.500 
18:35	62.7	62.7	62.7	33	33.2	1	3	315	0.00	29.500 
18:40	62.6	62.6	62.6	35	34.6	0	2	315	0.00	29.500 
18:45	62.4	62.4	62.4	33	32.9	1	4	0	0.00	29.509 
18:50	62.3	62.3	62.3	33	32.8	1	4	22	0.00	29.509 
18:55	62.1	62.1	62.1	34	33.4	1	2	45	0.00	29.509 
19:00	62.1	62.1	62.1	35	34.1	1	4	22	0.00	29.511 
19:05	62.0	62.0	62.0	34	33.3	1	3	0	0.00	29.511 
19:10	61.6	61.6	61.6	37	35.1	0	2	68	0.00	29.511 
19:15	61.3	61.3	61.3	35	33.4	1	5	135	0.00	29.515 
19:20	61.2	61.2	61.2	36	34.0	0	2	338	0.00	29.515 
19:25	61.0	61.0	61.0	37	34.5	0	3	338	0.00	29.515 
19:30	60.9	60.9	60.9	37	34.5	1	3	22	0.00	29.522 
19:35	60.5	60.5	60.5	37	34.1	0	1	22	0.00	29.522 
19:40	60.4	60.4	60.4	38	34.7	0	1	22	0.00	29.522 
19:45	60.1	60.1	60.1	37	33.7	0	2	22	0.00	29.528 
19:50	59.8	59.8	59.8	37	33.5	0	3	68	0.00	29.528 
19:55	59.5	59.5	59.5	38	33.9	0	3	158	0.00	29.528 
20:00	59.2	59.2	59.2	38	33.6	0	1	45	0.00	29.533 
20:05	58.7	58.7	58.7	37	32.5	0	2	45	0.00	29.533 
20:10	58.6	58.6	58.6	38	33.1	0	1	45	0.00	29.533 
20:15	58.3	58.3	58.3	38	32.8	0	0	---	0.00	29.544 
20:20	58.0	58.0	58.0	39	33.2	0	0	---	0.00	29.544 
20:25	57.5	57.5	57.5	41	34.0	0	1	45	0.00	29.544 
20:30	56.9	56.9	56.9	42	34.0	0	0	---	0.00	29.548 
20:35	56.5	56.5	56.5	42	33.7	0	0	---	0.00	29.548 
20:40	56.0	56.0	56.0	43	33.8	0	0	---	0.00	29.548 
20:45	55.6	55.6	55.6	44	34.0	0	0	---	0.00	29.560 
20:50	55.1	55.1	55.1	44	33.6	0	0	---	0.00	29.560 
20:55	54.7	54.7	54.7	46	34.3	0	0	---	0.00	29.560 
21:00	54.2	54.2	54.2	46	33.9	0	0	---	0.00	29.565 
21:05	53.8	53.8	53.8	48	34.6	0	0	---	0.00	29.565 
21:10	53.3	53.3	53.3	49	34.6	0	0	---	0.00	29.565 
21:15	52.9	52.9	52.9	50	34.8	0	0	---	0.00	29.567 
21:20	52.3	52.3	52.3	53	35.7	0	0	---	0.00	29.567 
21:25	51.7	51.7	51.7	54	35.6	0	0	---	0.00	29.567 
21:30	51.1	51.1	51.1	56	36.0	0	0	---	0.00	29.574 
21:35	50.5	50.5	50.5	57	35.8	0	0	---	0.00	29.574 
21:40	50.1	50.1	50.1	59	36.3	0	0	---	0.00	29.574 
21:45	49.6	49.6	49.6	61	36.7	0	0	---	0.00	29.580 
21:50	49.2	49.2	49.2	61	36.3	0	0	---	0.00	29.580 
21:55	48.9	48.9	48.9	62	36.5	0	0	---	0.00	29.580 
22:00	48.5	48.5	48.5	63	36.5	0	0	---	0.00	29.580 
22:05	47.9	47.9	47.9	64	36.3	0	0	---	0.00	29.580 
22:10	47.4	47.4	47.4	67	37.0	0	0	---	0.00	29.580 
22:15	47.1	47.1	47.1	69	37.5	0	0	---	0.00	29.582 
22:20	47.0	47.0	47.0	70	37.7	0	0	---	0.00	29.582 
22:25	46.7	46.7	46.7	71	37.8	0	0	---	0.00	29.582 
22:30	46.4	46.4	46.4	71	37.5	0	0	---	0.00	29.584 
22:35	46.1	46.1	46.1	72	37.6	0	1	45	0.00	29.584 
22:40	46.0	46.0	46.0	73	37.8	0	2	45	0.00	29.584 
22:45	46.4	46.4	46.4	71	37.5	1	2	338	0.00	29.594 
22:50	46.8	46.8	46.8	68	36.8	0	1	338	0.00	29.594 
22:55	47.4	47.4	47.4	66	36.6	0	3	45	0.00	29.594 
23:00	47.6	47.6	47.6	65	36.4	0	0	---	0.00	29.589 
23:05	47.6	47.6	47.6	65	36.4	0	1	45	0.00	29.589 
23:10	47.4	47.4	47.4	65	36.2	0	0	---	0.00	29.589 
23:15	47.3	47.3	47.3	65	36.1	0	0	---	0.00	29.593 
23:20	47.0	47.0	47.0	65	35.9	0	0	---	0.00	29.593 
23:25	46.7	46.7	46.7	66	36.0	0	0	---	0.00	29.593 
23:30	46.4	46.4	46.4	68	36.4	0	0	---	0.00	29.594 
23:35	46.1	46.1	46.1	69	36.5	0	0	---	0.00	29.594 
23:40	45.8	45.8	45.8	70	36.6	0	0	---	0.00	29.594 
23:45	45.5	45.5	45.5	71	36.7	0	0	---	0.00	29.599 
23:50	45.2	45.2	45.2	72	36.7	0	0	---	0.00	29.599 
23:55	45.1	45.1	45.1	73	37.0	0	0	---	0.00	29.599 

CoCoRaHS
IN-AL-39
A2 Web Hosting
Creative Commons License
GoDaddy
search engine by freefind advanced

loaded 2018-11-19 19:04:08 • last modified 2010-11-18 10:43:29
Privacy PolicyDisclaimer
• wx.awcolley.com is powered by PmWiki v.2002016 •
• all content (unless otherwise noted) © 2018 A W Colley